This is the latest recevied weather packets stored in our database for station/object N9DMT-13. If no packets are shown the sender has not sent any weather packets the latest 10 day(s).
| Time | Temp. | Humidity | Pressure | Rain* | Wind** | Luminosity | Snow |
|---|---|---|---|---|---|---|---|
| 1777846245 | 23.33° C | 32% | 971.9 hPa | 0 mm | - | - | - |
| 1777845944 | 23.89° C | 31% | 971.9 hPa | 0 mm | - | - | - |
| 1777845643 | 24.44° C | 31% | 972 hPa | 0 mm | - | - | - |
| 1777845342 | 23.89° C | 33% | 971.7 hPa | 0 mm | - | - | - |
| 1777845041 | 23.89° C | 34% | 971.9 hPa | 0 mm | - | - | - |
| 1777844741 | 23.89° C | 33% | 972.1 hPa | 0 mm | - | - | - |
| 1777844440 | 23.89° C | 33% | 972 hPa | 0 mm | - | - | - |
| 1777844139 | 23.33° C | 33% | 971.9 hPa | 0 mm | - | - | - |
| 1777843839 | 22.78° C | 35% | 972 hPa | 0 mm | - | - | - |
| 1777843538 | 23.33° C | 34% | 972 hPa | 0 mm | - | - | - |
| 1777843237 | 23.33° C | 34% | 972 hPa | 0 mm | - | - | - |
| 1777842936 | 23.33° C | 33% | 972.1 hPa | 0 mm | - | - | - |
| 1777842636 | 23.33° C | 34% | 972.2 hPa | 0 mm | - | - | - |
| 1777842335 | 23.89° C | 34% | 972.4 hPa | 0 mm | - | - | - |
| 1777842034 | 23.33° C | 36% | 972.2 hPa | 0 mm | - | - | - |
| 1777841733 | 23.33° C | 35% | 972.3 hPa | 0 mm | - | - | - |
| 1777841432 | 23.33° C | 36% | 972.3 hPa | 0 mm | - | - | - |
| 1777841132 | 22.78° C | 36% | 972.3 hPa | 0 mm | - | - | - |
| 1777840831 | 22.22° C | 36% | 972.5 hPa | 0 mm | - | - | - |
| 1777840530 | 23.33° C | 36% | 972.5 hPa | 0 mm | - | - | - |
| 1777840229 | 23.33° C | 36% | 972.7 hPa | 0 mm | - | - | - |
| 1777839929 | 22.78° C | 39% | 972.7 hPa | 0 mm | - | - | - |
| 1777836920 | 22.78° C | 38% | 973.1 hPa | 0 mm | - | - | - |
| 1777836620 | 22.22° C | 40% | 973.2 hPa | 0 mm | - | - | - |
| 1777836319 | 22.22° C | 40% | 973.3 hPa | 0 mm | - | - | - |
* Rain latest hour (hover to see other rain measurements)
** Current wind speed in m/s (hover to see current wind gust speed)